Preview of NWS' New Version of Forecast
This preview is not operational and should not be used for support decisions.

Regional Weather Roundup (RWR)

Issued by National Weather Service (NWS)

                            
000
ASUS43 KMKX 260201
RWRWI 

WISCONSIN REGIONAL WEATHER ROUNDUP
NATIONAL WEATHER SERVICE MILWAUKEE/SULLIVAN WI
900 PM CDT SUN AUG 25 2019

NOTE: "FAIR" INDICATES FEW OR NO CLOUDS BELOW 12,000 FEET WITH NO
SIGNIFICANT WEATHER AND/OR OBSTRUCTIONS TO VISIBILITY.

WIZ001-002-006>008-014>016-023>028-260300-
NORTHWEST WISCONSIN
  
CITY           SKY/WX    TMP DP  RH WIND       PRES   REMARKS
SUPERIOR ARPT  CLOUDY    64  55  71 CALM      29.95R                  
ASHLAND        FAIR      63  55  75 SE3       29.98S                  
HAYWARD        MOCLDY    64  53  67 SE8       29.98S                  
SIREN          LGT RAIN  62  59  91 SE3       29.95S                  
CUMBERLAND     CLOUDY    61  54  77 SE6       29.97R                  
RICE LAKE      NOT AVBL                                               
CHETEK         FAIR      64  57  76 SE8       29.97S                  
LADYSMITH      FAIR      61  55  79 CALM      30.01R                  
EAU CLAIRE     CLOUDY    66  56  70 SE8       29.96S                  
MENOMONIE      CLOUDY    61  55  80 E5        29.96S                  
NEW RICHMOND   CLOUDY    64  55  71 SE7       29.95R                  
OSCEOLA        RAIN      64  61  91 SE6       29.96S                  
$$
 
WIZ003>005-009-010-017-018-260300-
NORTH CENTRAL WISCONSIN
  
CITY           SKY/WX    TMP DP  RH WIND       PRES   REMARKS
MANITOWISH WTR FAIR      60  55  83 SE5       30.03R                  
ARBOR VITAE    FAIR      63  56  78 SE6       30.03S                  
WOODRUFF       FAIR      63  56  78 SE6       30.03S                  
RHINELANDER    FAIR      60  53  77 SE7       30.04F                  
EAGLE RIVER    FAIR      62  53  71 SE5       30.05S                  
LAND O LAKES   FAIR      61  54  76 SE5       30.07S                  
PHILLIPS       MOCLDY    56  56  98 CALM      30.01S                  
TOMAHAWK       FAIR      59  54  83 CALM      30.03S                  
MEDFORD        MOCLDY    60  56  84 SE3       30.01S                  
MERRILL        FAIR      62  56  80 SE5       30.02F                  
$$
 
WIZ029-030-035-036-043>047-260300-
CENTRAL WISCONSIN
  
CITY           SKY/WX    TMP DP  RH WIND       PRES   REMARKS
WAUSAU         FAIR      64  55  72 SE9       30.01S                  
MOSINEE        MOCLDY    63  57  82 SE9       30.03S                  
MARSHFIELD     CLOUDY    65  57  75 SE8       29.99S                  
STEVENS POINT  FAIR      63  54  72 E7        30.03R                  
WAUPACA        FAIR      64  58  81 CALM      30.03S                  
WAUTOMA        FAIR      64  56  75 E5        30.02S                  
WISC RAPIDS    FAIR      66  56  70 SE6       30.01S                  
CAMP DOUGLAS   FAIR      65  62  90 S3        29.99S                  
$$
 
WIZ011>013-019>022-031-037>040-048>050-260300-
NORTHEAST WISCONSIN
  
CITY           SKY/WX    TMP DP  RH WIND       PRES   REMARKS
ANTIGO         MOCLDY    61  55  82 SE7       30.05F                  
SHAWANO        FAIR      62  56  81 E3        30.04S                  
OCONTO         CLOUDY    64  58  80 E5        30.05R                  
STURGEON BAY   MOCLDY    65  58  78 E3        30.07R                  
GREEN BAY      FAIR      66  57  72 E7        30.04S                  
MANITOWOC      FAIR      64  59  83 E3        30.05S                  
APPLETON       MOCLDY    66  54  63 SE6       30.02F                  
CLINTONVILLE   FAIR      62  55  78 CALM      30.04R                  
OSHKOSH        FAIR      66  56  70 SE7       30.02S                  
$$
 
WIZ032>034-041-042-053>061-260300-
SOUTHWEST WISCONSIN
  
CITY           SKY/WX    TMP DP  RH WIND       PRES   REMARKS
LA CROSSE      CLOUDY    70  56  61 SE7       29.96R                  
SPARTA         MOCLDY    63  59  85 SE3       29.98S                  
VIROQUA        MOCLDY    62  59  92 E3        29.98S                  
BOSCOBEL       CLOUDY    66  60  81 VRB5      29.97S                  
PRAIRIE DU CHI CLOUDY    66  57  72 E5        29.96S                  
PLATTEVILLE    CLOUDY    65  62  91 E5        29.98S                  
$$

WIZ056-057-062-063-064-067-068-260300-
SOUTH CENTRAL WISCONSIN
  
CITY           SKY/WX    TMP DP  RH WIND       PRES   REMARKS
REEDSBURG      FAIR      63  63 100 CALM      29.99S                  
BARABOO/DELLS  MOCLDY    64  55  73 SE6       30.00S                  
LONE ROCK      NOT AVBL                                               
MINERAL POINT  FAIR      64  63  94 E7        29.98S                  
MADISON        MOCLDY    66  55  67 SE6       30.00R                  
MIDDLETON      CLOUDY    68  54  62 SE12      30.00S                  
WATERTOWN      CLOUDY    64  57  77 E6        30.01S                  
MONROE         FAIR      63  57  80 E6        29.99R                  
JANESVILLE     CLOUDY    68  57  68 E7        30.00S                  
$$
 
WIZ051-052-058>065-066-070>072-260300-
SOUTHEAST WISCONSIN
  
CITY           SKY/WX    TMP DP  RH WIND       PRES   REMARKS
MILWAUKEE      MOCLDY    70  58  65 E8        30.02S                  
WAUKESHA       PTCLDY    64  55  72 E6        30.03F                  
MILWAUKEE/TIMM CLEAR     70  54  56 E3        30.03F                  
RACINE         FAIR      71  59  65 E12       30.03S                  
KENOSHA        FAIR      72  59  63 E10       30.02R                  
FOND DU LAC    FAIR      68  57  68 E7        30.02F                  
SHEBOYGAN      FAIR      62  57  83 E5        30.04S                  
WEST BEND      FAIR      61  59  94 E3        30.03S                  
JUNEAU         FAIR      64  57  79 E3        30.03S                  
$$

LSZ147-162-260300-
LAKE SUPERIOR
  
STATION/POSITION TIME  TEMP    WIND        PRES    WAVE
                       AIR SEA DIR/SP/G            HT/PER
                 (UTC) (F)     (DEG/KT/KT) (MB)    (FT/S)
W MID LAKE BUOY  0050   65 64   80/  8/  8 1014.7F   1
DEVILS ISLAND    0100   66     110/  7/  8 1014.7F
SAXON HARBOR     0140   64     170/  2/  3 1014.6S
$$
 
LMZ867-665-643>646-260300-
LAKE MICHIGAN
  
STATION/POSITION TIME  TEMP    WIND        PRES    WAVE
                       AIR SEA DIR/SP/G            HT/PER
                 (UTC) (F)     (DEG/KT/KT) (MB)    (FT/S)
S GREEN BAY BUOY 0130   73 70  110/ 10/ 12 1017.6S
N MID LAKE BUOY  0140   70 70  110/ 12/ 16 1018.0R
NORTHPORT PIER   0140   66      CALM  /  1 1017.6S
KEWAUNEE LAKESHO 0130   67      90/  7/  9 1016.8F
SHEBOYGAN LAKESH 0100   69     110/  7/  7 1017.1F
PORT WASHINGTON  0140   71     120/  6/  8 1017.9R
ATWATER BUOY     0130   70 69  110/ 10/ 12 1016.8F   2/18
S MID LAKE BUOY  0140   72 72  120/ 14/ 17 1016.5F
KENOSHA   LAKESH 0100   73     120/ 16/ 20 1015.6
$$

TC  - TEMPERATURE IN CELSIUS
VSB - VISIBILITY IN STATUTE MILES
WCI - WIND CHILL INDEX
HX  - HEAT INDEX